Regional Weather Roundup
Issued by NWS

Home | Current Version | Previous Version | Text Only | Print | Product List | Glossary Off
Versions: 1 2 3 4 5 6 7 8 9 10 11 12 13 14 15 16 17 18 19 20 21 22 23 24 25 26 27 28 29 30 31 32 33 34 35 36 37 38 39 40 41 42 43 44 45 46 47 48 49 50

298
ASUS45 KTFX 190810
RWRMT
MONTANA REGIONAL WEATHER ROUNDUP
NATIONAL WEATHER SERVICE GREAT FALLS MT
200 AM MDT THU OCT 19 2017

NOTE: "FAIR" INDICATES FEW OR NO CLOUDS BELOW 12000 FEET WITH NO
SIGNIFICANT WEATHER AND/OR OBSTRUCTIONS TO VISIBILITY.

MTZ001>007-043-190900-
WEST OF THE DIVIDE

CITY           SKY/WX    TMP DP  RH WIND       PRES   REMARKS
KALISPELL      CLOUDY    53  40  61 SW8       29.70F
MISSOULA       CLEAR     40  36  86 CALM      29.78F
BUTTE          CLOUDY    41  27  57 NW3       29.92S
MULLAN PASS    CLOUDY    46  26  45 SW10G25   29.80S
ANACONDA         N/A     55  21  26 S15G21    29.86F
DEER LODGE       N/A     48  25  40 S7        29.86F
EUREKA           N/A     57  37  47 MISG      29.63F
HAMILTON         N/A     57  23  26 S13       29.79F
LIBBY            N/A     54  43  66 SW5       29.64F
$$

MTZ008-052>055-190900-
SOUTHWEST MONTANA

CITY           SKY/WX    TMP DP  RH WIND       PRES   REMARKS
BOZEMAN        CLOUDY    37  30  75 E5        29.89S
DILLON         CLOUDY    47  24  40 SW12      29.93F
W YELLOWSTONE  CLOUDY    30  23  74 CALM      30.10F
ENNIS          CLOUDY    54  19  26 S18       30.00S
THREE FORKS      N/A     60  25  26 SW9       29.87F
$$

MTZ009-010-012-014-046-048-049-054-190900-
EAST SLOPES AND CENTRAL MONTANA

CITY           SKY/WX    TMP DP  RH WIND       PRES   REMARKS
CUT BANK       CLOUDY    57  28  33 SW26G35   29.60F
GREAT FALLS    CLOUDY    61  23  23 SW23G31   29.70F
MALMSTROM AFB  CLOUDY    57  26  30 S21       29.70F
HELENA         CLOUDY    47  34  60 CALM      29.79F
BOWMANS CRNR     N/A     55  23  29 S25G31    29.70S
CHOTEAU          N/A     57  23  26 SW15G23   29.68S
FAIRFIELD        N/A     58  26  29 SW22G32   29.67F
POWER            N/A     57  26  30 S18       29.68S
RAYNESFORD       N/A     64  23  20 SW20G28   29.73F
ULM              N/A     59  24  25 S12       29.72S
$$

MTZ011-013-016-021-045-047-050-051-190900-
NORTH CENTRAL MONTANA

CITY           SKY/WX    TMP DP  RH WIND       PRES   REMARKS
HAVRE          CLOUDY    63  32  31 SW21G28   29.62F
LEWISTOWN      CLOUDY    59  28  30 SW17      29.76S
N BAR RANCH      N/A     52  27  37 VRB3      29.82R
CHINOOK          N/A     48  36  61 CALM      29.62F
DENTON           N/A     57  28  33 SW10      29.70R
GEYSER           N/A     61  24  24 SW23G29   29.74S
GRASS RANGE      N/A     59  28  29 SW13      29.73S
JUDITH GAP       N/A     54  27  36 S7        29.81S
WINIFRED         N/A     57  29  33 MISG      29.71S
$$

MTZ017>020-022>027-061-062-190900-
NORTHEAST MONTANA

CITY           SKY/WX    TMP DP  RH WIND       PRES   REMARKS
GLASGOW        CLOUDY    44  34  67 SE8       29.69F
JORDAN           N/A     50  30  46 W7        29.73F
SIDNEY         CLOUDY    36  28  73 CALM      29.77F
WOLF POINT     CLOUDY    36  27  69 CALM      29.73F
MALTA          CLEAR     46  34  61 NW5       29.67F
PLENTYWOOD       N/A     43  25  49 SE8       29.72F
POPLAR           N/A     39  25  56 N5        29.74S
$$

MTZ028>42-056>058-190900-
SOUTHCENTRAL AND SOUTHEAST MONTANA

CITY           SKY/WX    TMP DP  RH WIND       PRES   REMARKS
BAKER          CLOUDY    37  29  72 CALM      29.83F
BILLINGS       CLOUDY    58  28  32 SW9       29.83S
LIVINGSTON     CLOUDY    62  22  21 SW29G45   29.85S
MILES CITY     CLEAR     45  33  63 SE12      29.79S
BIG TIMBER     CLEAR     59  23  25 W16       29.87S
FORSYTH          N/A     45  28  53 CALM      29.78F
HARLOWTON        N/A     49  28  44 MISG      29.83S
LAUREL           N/A     57  27  30 SW15      29.84S
$$

REGIONAL REPORTS...DAKOTAS

CITY           SKY/WX    TMP DP  RH WIND       PRES   REMARKS
WILLISTON      CLOUDY    38  26  62 S5        29.77F
MINOT          CLOUDY    41  30  65 SE5       29.81F
DICKINSON      PTCLDY    45  25  45 S14       29.80F
BEACH            N/A     43  27  52 S8        29.83F
CROSBY           N/A     41  27  56 S18G25    29.74F
TIOGA            N/A     45  25  45 S12       29.79F
WATFORD CITY     N/A     37  25  60 SE7       29.78F
BISMARCK       CLOUDY    38  27  64 NE9       29.88F WCI  31
GRAND FORKS    CLEAR     38  26  62 SW6       29.91R
FARGO          CLOUDY    40  28  62 S6        29.95S
BUFFALO SD       N/A     44  26  49 SW3       29.80F
RAPID CITY     CLOUDY    52  29  41 S10       29.92F
$$

REGIONAL REPORTS...WYOMING/IDAHO/WASHINGTON

CITY           SKY/WX    TMP DP  RH WIND       PRES   REMARKS
GILLETTE       CLOUDY    57  18  21 SW14      29.90F
SHERIDAN       CLOUDY    44  28  53 SW5       29.88F
BUFFALO WY     CLOUDY    55  12  18 W5        29.94F
CODY           CLOUDY    59  20  22 SW14      29.98S
YELLOWSTONE LA   N/A     27  23  85 NW3       30.18S
IDAHO FALLS    CLOUDY    31  27  85 NW3       30.03F
SALMON         CLOUDY    35  28  75 SE3       29.92F
BOISE          CLEAR     54  29  38 SE12      29.86F
SPOKANE        CLOUDY    56  42  59 S17G26    29.64F
$$

REGIONAL REPORTS...ALBERTA

CITY           SKY/WX    TMP DP  RH WIND       PRES   REMARKS
EDMONTON       CLEAR     39  27  60 CALM      29.27R
CALGARY        MOCLDY    37  27  65 S5        29.32F
LETHBRIDGE     CLEAR     55  37  50 SW39G48   29.44F
MEDICINE HAT   MOCLDY    59  39  47 SW23G33   29.50R
$$

REGIONAL REPORTS...SASKATCHEWAN

CITY           SKY/WX    TMP DP  RH WIND       PRES   REMARKS
SWIFT CURRENT  CLOUDY    48  34  57 SW15G22   29.53F
SASKATOON      CLOUDY    43  19  39 SE14      29.55F
$$




USA.gov is the U.S. government's official web portal to all federal, state and local government web resources and services.